STARLINK-5067, 55653

Orbit data source: Space-Track

STARLINK-5067, 55653 is a payload satellite owned by SpaceX/Seattle (US) in LEO that was launched on Fri, 17 Feb 2023 UTC via an FALCON 9 launch vehicle from the Air Force Western Test Range (AFWTR). Payload-class satellites include a variety of spacecraft equipped with specific instruments for various scientific and technological missions. These include communications satellites like Starlink; space stations such as the ISS; scientific satellites like the Hubble; Earth observation satellites from companies like Planet Labs, Umbra, and HawkEye 360; GPS; miniature CubeSats for education and research; and military/defense satellites.

Loading next visibility...
Identifier
55653, 2023-021AB
Orbit
LEO
Country
Flag of USUS
Related business
Manufacturer
SpaceX/Seattle
Mission
Operational Commercial Communications
Bus & Motor
STARLINK, Unknown motor
Mass
305 kg wet, ~290 kg dry
Launch date (UTC)
2023-02-17 (3 years ago)
Launch vehicle
FALCON 9
Launch site
Air Force Western Test Range (AFWTR)
Object type
Payload
Rocket body
Debris
Shape & HBR
Box + 1 Pan, 10.1 m
Radar Cross Section
13.562 m², Large (>1 m²)

Expand to show TLE details & history
Last TLE update: 2 days ago

TLE from 2 days ago
0 STARLINK-5067
1 55653U 23021AB  26171.35403983  .00000291  00000-0  32178-4 0  9991
2 55653  69.9996 285.4341 0003096 269.2704  90.8100 14.98331350184175
Epoch: 2026-06-20T08:29Z
TLE epoch observation values (Epoch: 2026-06-20T08:29:49.041Z)
Latitude
-0.00004°
Longitude
-110.59012°
Altitude
574.507 km
Speed
7.574 km/s
True Right ascension
19h 01m 44s
True Declination
0° 00' 00"
Sunlit
Object was in full shadow at epoch
Visualization orbit readout
Latitude
Unknown
Longitude
Unknown
Altitude
Unknown
Speed
Unknown
Apparent Right ascension
Unknown
Apparent Declination
Unknown
Sunlit
N/A
Visualization observer readout
Local Sidereal Time
21:38:57
Azimuth
Unknown
Elevation
Unknown
Doppler factor
Unknown
Orbital elements
Apogee altitude
572.151 km
Perigee altitude
567.849 km
Semi-major axis
6,948.137 km
Eccentricity
0.00031
Inclination
69.9996°
RAAN
285.4341°
Arg. of periapsis
269.2704°
True anomaly
90.84547°
Mean anomaly
90.81°
Eccentric anomaly
90.82774°
Mean motion
3.74749 °/min
Orbital period
96.06 mins
BSTAR
0.000032178
Loading maneuver chart data...
Computing Atmospheric mass density...

Documentation

Showing up to 5 results
|